Location: Albany
(35.0170°S, 117.8920°E)
Time: 04:02:53
(UTC+08:00)

Vanguard 1 - Pass Details

Date: 27 January 2021
Orbit: 649 x 3833 km, 34.2° (Epoch: 26 February)

Event Time Altitude Azimuth Distance (km) Brightness Sun altitude
Rises 02:41:04 0° 275° (W) 3,594 - -27.0°
Reaches altitude 10° 02:43:58 10° 275° (W) 2,390 - -26.6°
Maximum altitude 02:49:06 83° 2° (N) 681 - -26.0°
Exits shadow 02:49:41 67° 75° (ENE) 721 9.3 -25.9°
Drops below altitude 10° 02:53:33 10° 89° (E) 2,079 12.2 -25.4°
Sets 02:55:54 0° 90° (E) 3,078 13.2 -25.1°
